Simultaneous Nadir Overpasses (SNOs) Predictions

Prediction of SNOs between GOES-14 and AQUA Satellite Orbit:

Table of predicted SNOs for the next 14.0 days since TLE Epoch: 10/22/2022
Index Date Time (GOES-14) GOES-14 Lat,Lon AQUA Lat,Lon Distance(km) Time Diff (sec)
1 10/23/2022 08:31:53 0.15,-104.35 -0.11,-102.97 156.17 80
2 10/23/2022 20:53:07 -0.12,-104.20 -0.97,-108.12 445.88 80
3 10/25/2022 20:40:16 -0.13,-104.20 -0.28,-105.00 90.07 80
4 10/27/2022 20:30:04 -0.14,-104.19 0.38,-101.86 265.20 80
5 10/28/2022 08:51:10 0.11,-104.36 0.65,-106.98 298.12 80
6 10/30/2022 08:35:37 0.12,-104.33 0.03,-103.84 55.83 80
7 11/01/2022 08:22:45 0.12,-104.31 -0.67,-100.71 409.94 80
8 11/01/2022 20:43:58 -0.09,-104.12 -0.45,-105.85 196.82 80
9 11/03/2022 20:33:45 -0.09,-104.11 0.22,-102.72 158.71 80
10 11/04/2022 08:54:51 0.06,-104.33 0.79,-107.84 398.87 80
